Tracking 25711 objects as of 23-May-2022
HD Live streaming from Space Station
objects crossing your sky now

COSMOS 1275 DEB

Track COSMOS 1275 DEB now!
10-day predictions


NORAD ID: 15768
Int'l Code: 1981-053KG
Perigee: 840.8 km
Apogee: 921.1 km
Inclination: 83.1 °
Period: 102.4 minutes
Semi major axis: 7251 km
RCS: 0.0155 m2 (small)
Launch date: June 4, 1981
Source: Commonwealth of Independent States (former USSR) (CIS)
Launch site: PLESETSK MISSILE AND SPACE COMPLEX (PKMTR)

Note: This is SATELLITE DEBRIS
aabbcc
Your satellite tracking list
Your tracking list is empty




NASA's NSSDC Master Catalog

Two Line Element Set (TLE):
1 15768U 81053KD  22142.83184757  .00003112  00000-0  18706-2 0  9999
2 15768  83.0699 273.2219 0055405  63.2620  57.5419 14.05790703884173
Source of the keplerian elements: AFSPC